[[{"header":{"parameterUnit":"m.s-1","parameterCategory":1,"la1":30.2991,"la2":30.254,"lo1":-89.0895,"lo2":-89.0444,"dy":0.0017,"dx":0.0017,"nx":28,"ny":28,"refTime":"2025-08-27T09:00:00:Z","depth":0,"parameterNumber":2,"parameterNumberName":"U-component_of_WINDS"},"data":[0,0,0,0,0,0,0,0,0,0,0,0,0,0,0,0,0,0,0,0,0,0,0,0,0,0,0,0,0,0,0,0,0,0,0,0,0,0,0,0,0,0,0,0,0,0,0,0,0,0,0,0,0,0,0,0,0,0,-0.7724,-0.7724,0,-0.7651,-0.765,-0.7649,-0.761,-0.761,-0.761,-0.761,-0.7532,-0.753,-0.7528,0,0,0,0,0,0,0,0,0,0,0,0,0,-0.7831,-0.783,-0.7725,-0.7724,-0.7723,-0.7651,-0.765,-0.7649,-0.761,-0.761,-0.761,-0.761,-0.7533,-0.7531,-0.7528,0,0,0,0,0,0,0,0,0,0,0,0,0,-0.7774,-0.7829,-0.7725,-0.7695,-0.7691,-0.7651,-0.765,-0.7648,-0.761,-0.761,-0.761,-0.761,-0.7534,-0.7531,-0.7528,-0.7511,0,0,-0.7519,-0.7518,0,0,0,0,0,0,0,0,-0.7777,-0.777,-0.77,-0.7697,-0.7693,-0.7639,-0.7659,-0.7602,-0.761,-0.7641,-0.761,-0.7609,-0.7568,-0.7562,-0.7548,-0.7508,-0.7505,-0.7519,-0.7517,-0.7515,-0.7515,0,0,0,0,0,0,0,-0.7781,-0.7773,-0.7695,-0.7699,-0.7695,-0.7685,-0.7676,-0.7648,-0.7606,-0.7638,-0.7635,-0.7627,-0.7566,-0.7551,-0.7546,-0.7503,-0.7519,-0.7516,-0.7514,-0.7513,-0.7446,-0.7446,0,0,0,0,0,0,-0.779,-0.7777,-0.7698,-0.7693,-0.7736,-0.7683,-0.7674,-0.7657,-0.7606,-0.7598,-0.7627,-0.7625,-0.7557,-0.755,-0.7543,-0.7521,-0.7515,-0.7513,-0.7511,-0.7446,-0.7446,-0.7446,0,0,0,0,0,0,-0.7793,-0.7784,-0.7701,-0.7734,-0.7723,-0.7681,-0.7662,-0.7655,-0.7641,-0.7598,-0.759,-0.762,-0.7556,-0.7548,-0.752,-0.7518,-0.7511,-0.7509,-0.7446,-0.7446,-0.7446,-0.7477,0,0,0,0,0,0,-0.7796,-0.7785,-0.7778,-0.7734,-0.7721,-0.7679,-0.7662,-0.7654,-0.7636,-0.7633,-0.7589,-0.7582,-0.7555,-0.7525,-0.7517,-0.7514,-0.7506,-0.7446,-0.7446,-0.7446,-0.7476,-0.7478,-0.7479,0,0,0,0,0,-0.78,-0.7789,-0.7778,-0.7769,-0.7712,-0.7679,-0.7671,-0.7642,-0.7636,-0.7629,-0.7601,-0.7583,-0.752,-0.7522,-0.7513,-0.7509,-0.7446,-0.7446,-0.7446,-0.7475,-0.7477,-0.7479,0,0,0,0,0,0,-0.7833,-0.7783,-0.777,-0.7744,-0.7716,-0.7672,-0.7662,-0.7645,-0.7618,-0.7616,-0.758,-0.7571,-0.7546,-0.7525,-0.7529,-0.7491,-0.7481,-0.7479,-0.7506,-0.7508,-0.751,-0.7515,-0.7504,0,0,0,0,0,-0.7838,-0.7815,-0.7772,-0.7754,-0.774,-0.7704,-0.7688,-0.7668,-0.7637,-0.7625,-0.7595,-0.7566,-0.7539,-0.7522,-0.7495,-0.7473,-0.7463,-0.7465,-0.7467,-0.7469,-0.7468,-0.7455,-0.7456,-0.7447,-0.7447,-0.7447,0,0,-0.7846,-0.7816,-0.7804,-0.776,-0.7735,-0.7713,-0.7694,-0.7671,-0.7653,-0.7621,-0.7593,-0.7571,-0.7535,-0.7511,-0.7498,-0.7492,-0.7468,-0.7469,-0.7471,-0.7469,-0.7455,-0.7456,-0.7457,-0.7447,-0.7447,-0.7447,0,0,-0.7851,-0.7826,-0.7808,-0.7784,-0.7748,-0.7724,-0.772,-0.7679,-0.7663,-0.7635,-0.761,-0.7589,-0.7544,-0.752,-0.7502,-0.7499,-0.7481,-0.7491,-0.7501,-0.7488,-0.7489,-0.749,-0.7489,-0.7489,-0.749,-0.749,-0.749,0,-0.7866,-0.7831,-0.7801,-0.7779,-0.7761,-0.7731,-0.7713,-0.7692,-0.7648,-0.7636,-0.763,-0.7574,-0.7548,-0.7517,-0.7517,-0.7503,-0.7497,-0.7495,-0.7492,-0.7492,-0.7492,-0.749,-0.749,-0.7491,-0.7491,-0.7491,-0.7491,0,-0.7852,-0.7828,-0.7818,-0.7778,-0.7758,-0.7739,-0.7705,-0.7689,-0.7671,-0.7648,-0.762,-0.7588,-0.7555,-0.7546,-0.7528,-0.7513,-0.751,-0.7498,-0.7488,-0.7494,-0.7493,-0.7492,-0.7493,-0.7493,-0.7493,-0.7492,0,0,-0.7874,-0.7819,-0.7815,-0.7797,-0.7756,-0.7736,-0.7716,-0.7684,-0.7671,-0.7642,-0.7624,-0.7587,-0.7576,-0.7556,-0.7535,-0.7524,-0.7524,-0.7513,-0.7512,-0.7516,-0.7506,-0.7515,-0.7515,-0.7512,-0.7512,-0.7512,-0.7509,0,-0.7873,-0.7834,-0.7807,-0.7779,-0.7757,-0.7729,-0.7711,-0.7684,-0.7662,-0.764,-0.7615,-0.759,-0.7577,-0.7565,-0.7553,-0.7526,-0.7521,-0.7526,-0.7494,-0.7494,-0.7504,-0.7514,-0.7523,-0.7522,-0.7508,-0.7508,-0.7508,0,-0.7866,-0.7839,-0.7809,-0.7771,-0.776,-0.7744,-0.7713,-0.7693,-0.7661,-0.7646,-0.7624,-0.7603,-0.758,-0.7572,-0.7539,-0.7544,-0.7529,-0.7514,-0.7513,-0.7509,-0.7501,-0.751,-0.7521,-0.752,-0.7506,-0.7506,-0.7506,0,-0.7885,-0.7842,-0.7818,-0.7803,-0.7758,-0.7748,-0.7728,-0.7697,-0.768,-0.7652,-0.7641,-0.7611,-0.7595,-0.7572,-0.7544,-0.7541,-0.7515,-0.7504,-0.7501,-0.7502,-0.7497,-0.7497,-0.7505,-0.7488,-0.7488,-0.7488,-0.7488,0,-0.7886,-0.7869,-0.7827,-0.7812,-0.7792,-0.7761,-0.7742,-0.772,-0.7693,-0.7674,-0.7648,-0.7631,-0.7594,-0.7572,-0.755,-0.7527,-0.7519,-0.7506,-0.7501,-0.7509,-0.751,-0.7498,-0.7498,-0.7488,-0.7488,-0.7488,-0.7488,0,-0.7905,-0.7875,-0.7848,-0.7808,-0.7797,-0.7784,-0.775,-0.7735,-0.7712,-0.7688,-0.7681,-0.7645,-0.7618,-0.7587,-0.755,-0.7535,-0.7514,-0.7505,-0.7524,-0.7521,-0.752,-0.752,-0.752,-0.7519,-0.7503,-0.7503,-0.7503,0,-0.7907,-0.7894,-0.7852,-0.7838,-0.7819,-0.7796,-0.7779,-0.7748,-0.7731,-0.7695,-0.7684,-0.7656,-0.7631,-0.7589,-0.756,-0.7531,-0.7522,-0.7524,-0.7517,-0.7526,-0.7522,-0.7523,-0.7522,-0.7525,-0.7526,-0.7526,-0.7526,0,-0.7915,-0.7902,-0.7878,-0.7849,-0.7829,-0.7805,-0.7779,-0.7769,-0.7733,-0.7715,-0.7688,-0.7669,-0.7631,-0.7603,-0.7572,-0.7551,-0.7533,-0.7529,-0.7527,-0.7534,-0.7546,-0.754,-0.7529,-0.7529,-0.7528,-0.7528,-0.7528,-0.7528,-0.7926,-0.7912,-0.7881,-0.7856,-0.7834,-0.7811,-0.7795,-0.777,-0.7747,-0.7715,-0.7698,-0.7671,-0.764,-0.7596,-0.7576,-0.7555,-0.7549,-0.7545,-0.7544,-0.7544,-0.7547,-0.755,-0.7549,-0.7549,-0.7549,-0.7548,-0.7548,0,-0.7932,-0.7911,-0.7888,-0.7854,-0.7834,-0.7819,-0.779,-0.7774,-0.7751,-0.7725,-0.7701,-0.767,-0.7643,-0.7612,-0.7583,-0.7571,-0.7562,-0.7565,-0.7565,-0.7561,-0.7554,-0.7558,-0.7573,-0.7573,-0.7573,-0.7573,-0.7573,-0.7573,-0.7933,-0.791,-0.7893,-0.7859,-0.7838,-0.7812,-0.7797,-0.7776,-0.7754,-0.7721,-0.7699,-0.7679,-0.765,-0.7619,-0.7594,-0.7585,-0.7576,-0.7581,-0.757,-0.7563,-0.7561,-0.7559,-0.7564,-0.7579,-0.7579,-0.7579,-0.7579,-0.7579]},{"header":{"parameterUnit":"m.s-1","parameterCategory":1,"la1":30.2991,"la2":30.254,"lo1":-89.0895,"lo2":-89.0444,"dy":0.0017,"dx":0.0017,"nx":28,"ny":28,"refTime":"2025-08-27T09:00:00:Z","depth":0,"parameterNumber":3,"parameterNumberName":"V-component_of_WINDS"},"data":[0,0,0,0,0,0,0,0,0,0,0,0,0,0,0,0,0,0,0,0,0,0,0,0,0,0,0,0,0,0,0,0,0,0,0,0,0,0,0,0,0,0,0,0,0,0,0,0,0,0,0,0,0,0,0,0,0,0,3.463,3.4629,0,3.4592,3.4592,3.4591,3.4555,3.4554,3.4554,3.4554,3.4512,3.4511,3.4511,0,0,0,0,0,0,0,0,0,0,0,0,0,3.4668,3.4668,3.463,3.4629,3.4629,3.4592,3.4592,3.4591,3.4555,3.4554,3.4554,3.4553,3.4512,3.4511,3.4511,0,0,0,0,0,0,0,0,0,0,0,0,0,3.4643,3.4667,3.463,3.4606,3.4604,3.4592,3.4592,3.4591,3.4555,3.4554,3.4554,3.4553,3.4513,3.4512,3.4511,3.4518,0,0,3.4507,3.4507,0,0,0,0,0,0,0,0,3.4644,3.4642,3.461,3.4608,3.4605,3.4578,3.459,3.4566,3.4555,3.4574,3.4554,3.4553,3.4534,3.4531,3.4526,3.4516,3.4514,3.4507,3.4507,3.4506,3.4506,0,0,0,0,0,0,0,3.4646,3.4643,3.4615,3.461,3.4607,3.4597,3.4593,3.4585,3.4558,3.4572,3.4569,3.4565,3.4533,3.4527,3.4524,3.4514,3.4507,3.4506,3.4506,3.4505,3.4508,3.4509,0,0,0,0,0,0,3.4652,3.4645,3.4616,3.4613,3.4624,3.4597,3.4592,3.4587,3.4558,3.4553,3.4566,3.4564,3.4529,3.4526,3.4523,3.4529,3.4506,3.4505,3.4505,3.4507,3.4508,3.4509,0,0,0,0,0,0,3.4653,3.465,3.4617,3.4628,3.4624,3.4597,3.4592,3.4587,3.4581,3.4554,3.4548,3.4565,3.4528,3.4524,3.452,3.4527,3.4505,3.4504,3.4507,3.4508,3.4509,3.4543,0,0,0,0,0,0,3.4654,3.465,3.4653,3.4629,3.4623,3.4616,3.4592,3.4586,3.4579,3.4576,3.4551,3.4547,3.4527,3.4521,3.4519,3.4526,3.4503,3.4506,3.4507,3.4508,3.4541,3.4545,3.4548,0,0,0,0,0,3.4656,3.4664,3.4654,3.465,3.4626,3.4616,3.4613,3.4591,3.458,3.4583,3.4565,3.4547,3.4527,3.4521,3.4518,3.4525,3.4505,3.4507,3.4508,3.4539,3.4544,3.4548,0,0,0,0,0,0,3.4688,3.466,3.4648,3.4649,3.4635,3.461,3.4612,3.4597,3.4585,3.4583,3.4556,3.4551,3.4549,3.4536,3.453,3.453,3.4514,3.4515,3.4539,3.4543,3.4547,3.4549,3.4502,0,0,0,0,0,3.4696,3.4691,3.4666,3.4669,3.4663,3.4639,3.4633,3.4618,3.4603,3.4596,3.4579,3.4564,3.4554,3.4548,3.4537,3.4539,3.4533,3.4542,3.4546,3.4549,3.455,3.455,3.4554,3.4514,3.4514,3.4514,0,0,3.4711,3.4695,3.4693,3.4675,3.4663,3.4657,3.4634,3.4629,3.4625,3.4595,3.459,3.4577,3.4558,3.4557,3.4555,3.4546,3.456,3.4551,3.4554,3.4553,3.4552,3.4556,3.4559,3.4515,3.4515,3.4515,0,0,3.4735,3.4723,3.4724,3.4712,3.4695,3.4679,3.4679,3.4657,3.4647,3.4642,3.462,3.4614,3.4597,3.4585,3.4577,3.4598,3.4581,3.4595,3.4614,3.4615,3.4618,3.462,3.4628,3.463,3.4596,3.4596,3.4596,0,3.4756,3.4747,3.4726,3.4723,3.4715,3.469,3.4691,3.468,3.466,3.4655,3.4645,3.4625,3.4611,3.4606,3.4612,3.4606,3.4605,3.4597,3.4619,3.4622,3.4624,3.463,3.4633,3.4598,3.4598,3.4598,3.4598,0,3.4773,3.4768,3.4771,3.4753,3.4746,3.4745,3.4723,3.4718,3.4704,3.4689,3.4684,3.4666,3.4652,3.465,3.4635,3.4643,3.4638,3.4625,3.4607,3.463,3.4635,3.4638,3.4601,3.46,3.46,3.4599,0,0,3.4816,3.4787,3.4789,3.478,3.4759,3.4754,3.4752,3.4739,3.4735,3.4722,3.4719,3.4707,3.4694,3.4685,3.4669,3.4669,3.4687,3.4655,3.4655,3.4661,3.4694,3.4704,3.4708,3.4676,3.4677,3.4677,3.4696,0,3.4836,3.4831,3.4812,3.4813,3.4807,3.4784,3.4782,3.4768,3.4755,3.4748,3.4732,3.4724,3.4708,3.4702,3.4702,3.4685,3.4693,3.4684,3.4672,3.4672,3.4677,3.4711,3.4721,3.474,3.4698,3.4698,3.4699,0,3.4859,3.4849,3.4849,3.4829,3.4826,3.4824,3.4811,3.4805,3.4789,3.4779,3.477,3.4752,3.4748,3.4733,3.4726,3.472,3.4714,3.4705,3.4705,3.4703,3.4686,3.4708,3.4745,3.4748,3.4702,3.4702,3.4701,0,3.489,3.4876,3.4874,3.4868,3.4844,3.4844,3.4834,3.4818,3.4811,3.48,3.4795,3.4783,3.4776,3.4767,3.4746,3.4737,3.4742,3.4725,3.4732,3.4733,3.4733,3.4734,3.4769,3.4731,3.4731,3.4731,3.4731,0,3.4914,3.4914,3.4888,3.4886,3.4887,3.4865,3.4866,3.4853,3.4839,3.4835,3.4814,3.481,3.4784,3.4777,3.4761,3.4758,3.4755,3.4746,3.4741,3.4747,3.4748,3.4742,3.474,3.4732,3.4732,3.4732,3.4732,0,3.4947,3.4929,3.4926,3.4905,3.4899,3.49,3.4882,3.4879,3.4865,3.486,3.4857,3.4835,3.4825,3.4805,3.479,3.4779,3.4779,3.4772,3.4785,3.4782,3.4791,3.479,3.4823,3.4826,3.4787,3.4788,3.4788,0,3.4963,3.4964,3.4943,3.4939,3.493,3.4924,3.4918,3.4897,3.4891,3.4874,3.4874,3.4863,3.4854,3.484,3.4821,3.481,3.4801,3.4814,3.4799,3.4805,3.4801,3.4801,3.48,3.4817,3.4817,3.4818,3.4818,0,3.4994,3.4985,3.4978,3.4967,3.4961,3.4951,3.494,3.4938,3.4915,3.4909,3.49,3.4893,3.4878,3.4868,3.4854,3.4842,3.4826,3.4823,3.4824,3.483,3.4837,3.4833,3.4793,3.4822,3.4822,3.4821,3.4821,3.4821,3.5019,3.5018,3.5003,3.4996,3.4986,3.4977,3.4974,3.496,3.4952,3.4939,3.4927,3.4919,3.4904,3.4883,3.4874,3.4867,3.4858,3.486,3.486,3.4861,3.4863,3.4839,3.4864,3.4864,3.4864,3.4864,3.4863,0,3.5047,3.5037,3.5031,3.5017,3.5011,3.4998,3.4986,3.4981,3.4975,3.4962,3.4954,3.4944,3.4934,3.4915,3.4903,3.4901,3.4894,3.4899,3.4898,3.4896,3.4871,3.4871,3.4905,3.4905,3.4905,3.4905,3.4905,3.4905,3.5062,3.506,3.505,3.5043,3.5032,3.5025,3.5019,3.5011,3.5001,3.499,3.4983,3.4971,3.4956,3.4943,3.4933,3.4928,3.4924,3.4932,3.4924,3.4902,3.4898,3.4894,3.4894,3.4932,3.4932,3.4949,3.4949,3.495]}]]